Regional Weather Roundup
Issued by NWS

Home | Current Version | Previous Version | Graphics & Text | Print | Product List | Glossary On
Versions: 1 2 3 4 5 6 7 8 9 10 11 12 13 14 15 16 17 18 19 20 21 22 23 24 25 26 27 28 29 30 31 32 33 34 35 36 37 38 39 40 41 42 43 44 45 46 47 48 49 50
000
ASUS43 KOAX 310402
RWRNE

WEATHER ROUNDUP FOR NEBRASKA
NATIONAL WEATHER SERVICE OMAHA NE
1100 PM CDT THU JUL 30 2015

NOTES: SATELLITE DATA IS BEING USED TO AUGMENT CLOUD COVER ABOVE
       12000 FEET.
       "FAIR" INDICATES FEW OR NO CLOUDS BELOW 12,000 FEET WITH NO
       SIGNIFICANT WEATHER AND/OR OBSTRUCTIONS TO VISIBILITY.

  * THESE STATIONS DO NOT REPORT WEATHER SUCH AS RAIN...SNOW OR FOG.

NEZ001>004-019>022-054>056-310500-
NEBRASKA PANHANDLE

CITY           SKY/WX    TMP DP  RH WIND       PRES   REMARKS
SCOTTSBLUFF    CLEAR     71  49  45 NE9       30.26R
ALLIANCE       CLEAR     66  53  63 CALM      30.27R
CHADRON        CLEAR     65  51  60 CALM      30.22R
KIMBALL        CLEAR     64  55  74 S3        30.31R
SIDNEY         CLEAR     66  58  75 CALM      30.31R
$$

NEZ057>060-069>072-079>082-310500-
SOUTHWEST NEBRASKA

CITY           SKY/WX    TMP DP  RH WIND       PRES   REMARKS
NORTH PLATTE   MOCLDY    69  63  81 NE3       30.21R
IMPERIAL       PTCLDY    72  59  63 SE7       30.24R
LEXINGTON      MOCLDY    74  67  79 SE7       30.19F
MCCOOK         CLOUDY    77  62  59 S7        30.20R
$$

NEZ005>010-023>029-035>040-094-310500-
NORTH CENTRAL NEBRASKA

CITY           SKY/WX    TMP DP  RH WIND       PRES   REMARKS
VALENTINE      CLEAR     66  53  63 CALM      30.20R
AINSWORTH      CLEAR     67  56  68 E3        30.21R
BROKEN BOW     PTCLDY    70  65  84 CALM      30.20R
ORD            CLEAR     72  66  81 S6        30.16R
$$

NEZ041-046>049-061>064-073>077-083>087-310500-
SOUTH CENTRAL NEBRASKA

CITY           SKY/WX    TMP DP  RH WIND       PRES   REMARKS
GRAND ISLAND   PTCLDY    72  66  81 S8        30.18R
AURORA         PTCLDY    73  67  80 S5        30.18R
HASTINGS       MOCLDY    76  67  73 MISG      30.19R
KEARNEY *      MOCLDY    73  66  78 S6        30.19R
$$

NEZ011>018-030>034-042>045-310500-
NORTHEAST NEBRASKA

CITY           SKY/WX    TMP DP  RH WIND       PRES   REMARKS
NORFOLK        PTCLDY    73  67  81 NE6       30.13R
BLAIR          CLEAR     71  64  79 S6        30.14R
COLUMBUS *     CLEAR     75  63  64 SW6       30.15R
FREMONT        CLEAR     76  65  67 S5        30.14R
TEKAMAH        CLEAR     71  68  90 S6        30.12R
$$

NEZ050>053-065>068-078-088>093-310500-
SOUTHEAST NEBRASKA

CITY           SKY/WX    TMP DP  RH WIND       PRES   REMARKS
LINCOLN        CLEAR     74  61  63 S3        30.16R
OMAHA EPPLEY   CLEAR     75  66  73 SE5       30.13R
FALLS CITY     CLEAR     74  65  73 S6        30.15R
$$

NEZ044-045-051>053-067-310500-
OMAHA AREA

CITY           SKY/WX    TMP DP  RH WIND       PRES   REMARKS
OMAHA EPPLEY   CLEAR     75  66  73 SE5       30.13R
BLAIR          CLEAR     71  64  79 S6        30.14R
FREMONT        CLEAR     76  65  67 S5        30.14R
OFFUTT AFB     CLEAR     72  66  80 VRB2      30.13R
$$


USA.gov is the U.S. government's official web portal to all federal, state and local government web resources and services.